Flag for Germany Weather past 2 weeks in Lüneburg, Lower Saxony, Germany

Now
43 °F

Passing clouds.


Feels Like: 39 °F
Forecast: 35 / 52 °F
Wind: 7 mph from Southwest

Location: Fassberg

Current Time: Mar 6, 2015 at 11:39:33 PM

Latest Report: Mar 6, 2015 at 10:20 PM


Visibility: N/A

Pressure: 30.51 "Hg

Humidity: 76%

Dew point: 36 °F

Location of LüneburgLocation

Historic Weather in Lüneburg — Graph

°F

Lüneburg temperature yesterday

Maximum temperature yesterday: 45 °F (at 3:20 PM)
Minimum temperature yesterday: 34 °F (at 5:20 AM)
Average temperature yesterday: 40 °F

Past Weeks' High & Low Weather Summary

 TemperatureHumidityPressure
High48 °F (Feb 26, 1:20 PM)100% (Feb 25, 12:20 AM)30.57 "Hg (Feb 25, 12:20 AM)
Low30 °F (Feb 19, 11:20 PM)49% (Feb 28, 4:20 PM)29.27 "Hg (Feb 21, 10:20 AM)
Average38 °F81%29.86 "Hg
* Reported Feb 19 10:20 PM — Mar 6 10:20 PM, Lüneburg, Weather by CustomWeather, © 2015

Note: Actual official high and low records may vary slightly from our data, if they occured in-between our weather recording intervals... More about our weather records

Advertising

Lüneburg weather history for previous 24 hours

 ConditionsComfort  
Time TempWeatherWind HumidityBarometerVisibility
10:20 PM
Fri, Mar 6
43 °FPassing clouds.7 mph76%30.51 "HgN/A
9:20 PM45 °FPassing clouds.9 mph71%30.51 "HgN/A
8:20 PM45 °FPassing clouds.9 mph71%30.51 "HgN/A
7:20 PM45 °FPassing clouds.7 mph71%30.51 "HgN/A
6:20 PM46 °FPassing clouds.7 mph66%30.51 "HgN/A
5:20 PM46 °FPartly sunny.9 mph66%30.48 "HgN/A
4:20 PM46 °FPartly sunny.10 mph66%30.48 "HgN/A
3:20 PM46 °FPartly sunny.9 mph66%30.48 "HgN/A
2:20 PM46 °FPartly sunny.9 mph66%30.51 "HgN/A
1:20 PM46 °FPartly sunny.9 mph66%30.51 "HgN/A
12:20 PM45 °FPartly sunny.9 mph71%30.54 "HgN/A
11:20 AM43 °FPartly sunny.9 mph76%30.54 "HgN/A
10:20 AM43 °FPartly sunny.9 mph76%30.54 "HgN/A
9:20 AM41 °FPartly sunny.6 mph76%30.54 "HgN/A
8:20 AM39 °FPartly sunny.7 mph81%30.51 "HgN/A
7:20 AM39 °FPartly sunny.8 mph87%30.51 "Hg5 mi
6:20 AM39 °FPartly cloudy.9 mph81%30.54 "HgN/A
5:20 AM39 °FPassing clouds.8 mph81%30.51 "HgN/A
4:20 AM39 °FPassing clouds.6 mph81%30.54 "HgN/A
3:20 AM39 °FPassing clouds.6 mph87%30.54 "HgN/A
2:20 AM39 °FPassing clouds.5 mph87%30.54 "HgN/A
1:20 AM39 °FPassing clouds.5 mph81%30.54 "HgN/A
12:20 AM39 °FPassing clouds.6 mph81%30.54 "HgN/A
11:20 PM
Thu, Mar 5
41 °FPartly cloudy.6 mph76%30.57 "HgN/A
Weather by CustomWeather, © 2015

See weather overviewHow to use our weather pages